Station Historical Data
Daily Summary for February 28, 2012 Units:  English    Metric   Both
« Previous Day
Next Day »
Daily Weekly Monthly Yearly Custom
  High: Low: Average:
Temperature: 69.1 °F 45.7 °F 57.5 °F
Dew Point: 58.7 °F 37.7 °F 47.9 °F
Humidity: 95% 55% 71%
Wind Speed: 17.0mph 1.0mph 6.1mph
Wind Gust: 19.0mph - -
Wind- - ESE
Pressure: 30.33 in 30.05 in -
Precipitation: 0.01 in    
Historical Graphs
 
 
Tabular Data for February 28, 2012
Time Temperature Dew Point Pressure Wind Wind Speed Wind Gust Humidity Rainfall Rate (Hourly) Conditions
00:00 51.8 °F 40.8 °F 30.32 in NNE 4.0 mph 6.0 mph 66% 0.00 in
00:05 52.0 °F 41.0 °F 30.32 in NE 5.0 mph 6.0 mph 66% 0.00 in
00:10 52.2 °F 40.4 °F 30.33 in NE 5.0 mph 5.0 mph 64% 0.00 in
00:15 52.6 °F 40.8 °F 30.33 in NNE 3.0 mph 6.0 mph 64% 0.00 in
00:20 52.4 °F 40.6 °F 30.32 in NE 6.0 mph 6.0 mph 64% 0.00 in
00:25 52.5 °F 40.3 °F 30.33 in NE 4.0 mph 9.0 mph 63% 0.00 in
00:30 52.6 °F 40.4 °F 30.33 in NE 3.0 mph 8.0 mph 63% 0.00 in
00:35 52.5 °F 40.3 °F 30.32 in NE 4.0 mph 7.0 mph 63% 0.00 in
00:37 52.5 °F 40.3 °F 30.32 in NE 4.0 mph 7.0 mph 63% 0.00 in
00:42 52.4 °F 40.2 °F 30.32 in NNE 4.0 mph 6.0 mph 63% 0.00 in
00:47 52.4 °F 40.2 °F 30.32 in NE 3.0 mph 6.0 mph 63% 0.00 in
00:52 52.2 °F 40.0 °F 30.33 in ENE 3.0 mph 4.0 mph 63% 0.00 in
00:57 52.0 °F 39.8 °F 30.33 in NE 3.0 mph 6.0 mph 63% 0.00 in
01:02 51.7 °F 39.5 °F 30.32 in NNE 4.0 mph 6.0 mph 63% 0.00 in
01:07 51.7 °F 39.9 °F 30.32 in NE 4.0 mph 7.0 mph 64% 0.00 in
01:12 51.5 °F 39.7 °F 30.32 in NNE 3.0 mph 5.0 mph 64% 0.00 in
01:17 51.3 °F 39.5 °F 30.32 in NE 3.0 mph 4.0 mph 64% 0.00 in
01:22 51.2 °F 39.5 °F 30.32 in NE 3.0 mph 5.0 mph 64% 0.00 in
01:27 50.8 °F 39.5 °F 30.32 in NE 4.0 mph 4.0 mph 65% 0.00 in
01:32 50.6 °F 39.3 °F 30.32 in NNE 3.0 mph 4.0 mph 65% 0.00 in
01:37 50.5 °F 39.2 °F 30.33 in NNE 5.0 mph 6.0 mph 65% 0.00 in
01:42 50.5 °F 39.6 °F 30.32 in NNE 4.0 mph 6.0 mph 66% 0.00 in
01:47 50.4 °F 39.5 °F 30.33 in NE 5.0 mph 6.0 mph 66% 0.00 in
01:52 50.4 °F 39.5 °F 30.32 in NNE 4.0 mph 7.0 mph 66% 0.00 in
01:57 50.4 °F 39.5 °F 30.32 in NE 5.0 mph 6.0 mph 66% 0.00 in
02:02 50.3 °F 39.4 °F 30.32 in NE 3.0 mph 7.0 mph 66% 0.00 in
02:07 50.3 °F 39.4 °F 30.32 in NNE 5.0 mph 7.0 mph 66% 0.00 in
02:12 50.1 °F 39.2 °F 30.32 in NNE 4.0 mph 6.0 mph 66% 0.00 in
02:17 49.9 °F 39.0 °F 30.32 in NNE 3.0 mph 7.0 mph 66% 0.00 in
02:22 49.9 °F 39.0 °F 30.32 in NE 5.0 mph 6.0 mph 66% 0.00 in
02:27 50.0 °F 39.1 °F 30.32 in NE 4.0 mph 7.0 mph 66% 0.00 in
02:32 50.1 °F 39.2 °F 30.32 in NE 4.0 mph 8.0 mph 66% 0.00 in
02:37 50.1 °F 39.2 °F 30.32 in NE 5.0 mph 7.0 mph 66% 0.00 in
02:42 49.9 °F 39.0 °F 30.31 in NE 4.0 mph 7.0 mph 66% 0.00 in
02:47 49.8 °F 38.9 °F 30.31 in NE 4.0 mph 5.0 mph 66% 0.00 in
02:52 49.4 °F 38.9 °F 30.31 in NE 3.0 mph 5.0 mph 67% 0.00 in
02:57 49.2 °F 38.7 °F 30.31 in NE 4.0 mph 5.0 mph 67% 0.00 in
03:02 49.0 °F 38.5 °F 30.31 in NE 4.0 mph 6.0 mph 67% 0.00 in
03:07 48.9 °F 38.4 °F 30.31 in NE 3.0 mph 6.0 mph 67% 0.00 in
03:12 48.6 °F 38.5 °F 30.30 in NE 5.0 mph 6.0 mph 68% 0.00 in
03:17 48.3 °F 38.2 °F 30.30 in NNE 3.0 mph 5.0 mph 68% 0.00 in
03:22 48.4 °F 38.3 °F 30.30 in NNE 5.0 mph 5.0 mph 68% 0.00 in
03:27 48.3 °F 38.2 °F 30.30 in NE 4.0 mph 6.0 mph 68% 0.00 in
03:32 48.2 °F 38.2 °F 30.29 in NNE 3.0 mph 6.0 mph 68% 0.00 in
03:37 48.0 °F 38.3 °F 30.29 in NE 3.0 mph 5.0 mph 69% 0.00 in
03:42 47.9 °F 38.2 °F 30.29 in NNE 4.0 mph 4.0 mph 69% 0.00 in
03:47 47.9 °F 38.2 °F 30.29 in NE 4.0 mph 5.0 mph 69% 0.00 in
03:52 47.8 °F 38.1 °F 30.29 in NE 4.0 mph 6.0 mph 69% 0.00 in
03:57 47.9 °F 38.2 °F 30.29 in NNE 3.0 mph 6.0 mph 69% 0.00 in
04:03 47.9 °F 38.2 °F 30.28 in NNE 4.0 mph 7.0 mph 69% 0.00 in
04:08 47.8 °F 38.1 °F 30.28 in NNE 3.0 mph 6.0 mph 69% 0.00 in
04:13 47.8 °F 38.1 °F 30.28 in NNE 3.0 mph 5.0 mph 69% 0.00 in
04:18 47.6 °F 38.0 °F 30.28 in NNE 3.0 mph 6.0 mph 69% 0.00 in
04:23 47.5 °F 38.2 °F 30.28 in NNE 5.0 mph 6.0 mph 70% 0.00 in
04:28 47.4 °F 38.1 °F 30.28 in NE 3.0 mph 6.0 mph 70% 0.00 in
04:33 47.3 °F 38.0 °F 30.28 in North 4.0 mph 7.0 mph 70% 0.00 in
04:38 47.2 °F 37.9 °F 30.28 in NNE 3.0 mph 6.0 mph 70% 0.00 in
04:43 47.0 °F 38.1 °F 30.28 in NNE 3.0 mph 5.0 mph 71% 0.00 in
04:48 47.0 °F 38.1 °F 30.28 in NNE 3.0 mph 5.0 mph 71% 0.00 in
04:53 47.4 °F 38.1 °F 30.27 in NE 3.0 mph 7.0 mph 70% 0.00 in
04:58 47.4 °F 38.1 °F 30.28 in NE 5.0 mph 6.0 mph 70% 0.00 in
05:03 47.3 °F 38.0 °F 30.28 in NNE 4.0 mph 5.0 mph 70% 0.00 in
05:08 47.2 °F 38.3 °F 30.28 in NE 3.0 mph 5.0 mph 71% 0.00 in
05:13 47.3 °F 38.4 °F 30.28 in NE 4.0 mph 6.0 mph 71% 0.00 in
05:18 47.5 °F 38.2 °F 30.28 in NE 2.0 mph 6.0 mph 70% 0.00 in
05:23 47.5 °F 38.2 °F 30.28 in NE 5.0 mph 5.0 mph 70% 0.00 in
05:28 47.6 °F 38.3 °F 30.28 in NE 5.0 mph 7.0 mph 70% 0.00 in
05:33 47.4 °F 38.1 °F 30.28 in NNE 2.0 mph 5.0 mph 70% 0.00 in
05:39 47.2 °F 38.3 °F 30.29 in NNE 3.0 mph 6.0 mph 71% 0.00 in
05:44 46.9 °F 38.0 °F 30.29 in North 1.0 mph 3.0 mph 71% 0.00 in
05:49 46.4 °F 37.9 °F 30.29 in NNE 1.0 mph 2.0 mph 72% 0.00 in
05:54 46.1 °F 37.9 °F 30.29 in NNE 1.0 mph 2.0 mph 73% 0.00 in
05:59 45.8 °F 37.7 °F 30.29 in NE 2.0 mph 2.0 mph 73% 0.00 in
06:04 45.9 °F 37.8 °F 30.29 in NNE 2.0 mph 3.0 mph 73% 0.00 in
06:09 45.8 °F 37.7 °F 30.29 in NNE 3.0 mph 3.0 mph 73% 0.00 in
06:14 45.9 °F 37.8 °F 30.29 in NE 1.0 mph 3.0 mph 73% 0.00 in
06:19 46.1 °F 37.9 °F 30.29 in NE 2.0 mph 4.0 mph 73% 0.00 in
06:24 46.4 °F 38.2 °F 30.29 in NE 3.0 mph 5.0 mph 73% 0.00 in
06:29 46.5 °F 38.0 °F 30.30 in NNE 2.0 mph 4.0 mph 72% 0.00 in
06:34 46.2 °F 38.0 °F 30.30 in NNE 3.0 mph 3.0 mph 73% 0.00 in
06:39 45.7 °F 37.9 °F 30.30 in NE 3.0 mph 3.0 mph 74% 0.00 in
06:44 45.9 °F 37.8 °F 30.29 in NE 3.0 mph 4.0 mph 73% 0.00 in
06:49 46.1 °F 37.9 °F 30.29 in NE 4.0 mph 5.0 mph 73% 0.00 in
06:54 46.3 °F 38.1 °F 30.29 in NE 4.0 mph 5.0 mph 73% 0.00 in
06:59 46.6 °F 38.1 °F 30.29 in NE 3.0 mph 5.0 mph 72% 0.00 in
07:04 46.8 °F 38.3 °F 30.29 in NNE 5.0 mph 6.0 mph 72% 0.00 in
07:09 46.9 °F 38.4 °F 30.29 in NE 3.0 mph 8.0 mph 72% 0.00 in
07:14 46.9 °F 38.4 °F 30.29 in NE 2.0 mph 4.0 mph 72% 0.00 in
07:19 46.8 °F 38.3 °F 30.28 in NE 3.0 mph 6.0 mph 72% 0.00 in
07:24 47.0 °F 38.5 °F 30.28 in NE 5.0 mph 7.0 mph 72% 0.00 in
07:29 47.0 °F 38.5 °F 30.28 in NE 2.0 mph 5.0 mph 72% 0.00 in
07:34 47.1 °F 38.5 °F 30.28 in East 2.0 mph 5.0 mph 72% 0.00 in
07:39 47.1 °F 38.9 °F 30.28 in ENE 3.0 mph 5.0 mph 73% 0.00 in
07:44 47.1 °F 38.9 °F 30.28 in East 2.0 mph 5.0 mph 73% 0.00 in
07:49 47.2 °F 39.0 °F 30.28 in ENE 3.0 mph 5.0 mph 73% 0.00 in
07:54 47.4 °F 39.2 °F 30.28 in ENE 2.0 mph 4.0 mph 73% 0.00 in
07:59 47.5 °F 38.9 °F 30.28 in East 3.0 mph 5.0 mph 72% 0.00 in
08:04 47.4 °F 39.2 °F 30.28 in East 4.0 mph 5.0 mph 73% 0.00 in
08:09 47.3 °F 39.1 °F 30.28 in East 2.0 mph 5.0 mph 73% 0.00 in
08:15 47.5 °F 39.3 °F 30.29 in East 3.0 mph 4.0 mph 73% 0.00 in
08:20 47.8 °F 39.6 °F 30.28 in ENE 2.0 mph 5.0 mph 73% 0.00 in
08:25 48.4 °F 39.8 °F 30.29 in NE 2.0 mph 3.0 mph 72% 0.00 in
08:30 49.0 °F 40.4 °F 30.29 in ENE 1.0 mph 4.0 mph 72% 0.00 in
08:35 49.9 °F 40.5 °F 30.29 in East 4.0 mph 5.0 mph 70% 0.00 in
08:40 50.5 °F 40.7 °F 30.29 in NE 5.0 mph 6.0 mph 69% 0.00 in
08:45 51.1 °F 40.9 °F 30.29 in East 3.0 mph 5.0 mph 68% 0.00 in
08:50 51.5 °F 41.3 °F 30.29 in ENE 4.0 mph 7.0 mph 68% 0.00 in
08:55 51.7 °F 41.9 °F 30.29 in ENE 7.0 mph 7.0 mph 69% 0.00 in
08:56 51.7 °F 41.5 °F 30.29 in East 5.0 mph 7.0 mph 68% 0.00 in
09:01 51.8 °F 41.6 °F 30.29 in East 3.0 mph 6.0 mph 68% 0.00 in
09:06 52.0 °F 41.8 °F 30.29 in East 4.0 mph 5.0 mph 68% 0.00 in
09:11 52.3 °F 42.1 °F 30.29 in East 4.0 mph 5.0 mph 68% 0.00 in
09:16 52.5 °F 42.3 °F 30.29 in NE 4.0 mph 5.0 mph 68% 0.00 in
09:21 52.7 °F 42.1 °F 30.29 in ENE 4.0 mph 6.0 mph 67% 0.00 in
09:26 53.1 °F 42.8 °F 30.29 in East 2.0 mph 4.0 mph 68% 0.00 in
09:31 53.9 °F 42.8 °F 30.29 in ENE 5.0 mph 7.0 mph 66% 0.00 in
09:36 54.7 °F 42.8 °F 30.28 in East 5.0 mph 7.0 mph 64% 0.00 in
09:41 55.3 °F 44.2 °F 30.28 in East 4.0 mph 6.0 mph 66% 0.00 in
09:46 56.1 °F 44.1 °F 30.28 in ESE 4.0 mph 5.0 mph 64% 0.00 in
09:51 57.1 °F 45.5 °F 30.28 in ESE 3.0 mph 4.0 mph 65% 0.00 in
09:56 57.9 °F 45.0 °F 30.28 in ESE 5.0 mph 7.0 mph 62% 0.00 in
10:01 58.6 °F 46.1 °F 30.28 in ESE 5.0 mph 7.0 mph 63% 0.00 in
10:06 59.1 °F 44.8 °F 30.29 in ESE 9.0 mph 11.0 mph 59% 0.00 in
10:11 59.3 °F 45.9 °F 30.28 in East 5.0 mph 9.0 mph 61% 0.00 in
10:16 59.6 °F 46.2 °F 30.29 in SE 6.0 mph 9.0 mph 61% 0.00 in
10:21 60.0 °F 46.1 °F 30.28 in SE 5.0 mph 9.0 mph 60% 0.00 in
10:26 60.3 °F 45.9 °F 30.28 in ESE 6.0 mph 8.0 mph 59% 0.00 in
10:31 60.4 °F 46.9 °F 30.28 in ESE 6.0 mph 9.0 mph 61% 0.00 in
10:36 60.5 °F 47.4 °F 30.28 in SE 4.0 mph 6.0 mph 62% 0.00 in
10:41 60.5 °F 47.0 °F 30.27 in ESE 5.0 mph 10.0 mph 61% 0.00 in
10:46 60.7 °F 47.6 °F 30.27 in East 5.0 mph 9.0 mph 62% 0.00 in
10:51 61.1 °F 47.6 °F 30.27 in East 9.0 mph 9.0 mph 61% 0.00 in
10:56 61.5 °F 48.4 °F 30.27 in ESE 7.0 mph 15.0 mph 62% 0.00 in
11:01 61.9 °F 48.8 °F 30.27 in ESE 8.0 mph 11.0 mph 62% 0.00 in
11:06 62.2 °F 48.6 °F 30.27 in ESE 6.0 mph 10.0 mph 61% 0.00 in
11:11 62.4 °F 48.8 °F 30.27 in SE 9.0 mph 12.0 mph 61% 0.00 in
11:16 62.6 °F 49.0 °F 30.27 in SSE 12.0 mph 13.0 mph 61% 0.00 in
11:21 62.8 °F 49.6 °F 30.27 in South 6.0 mph 11.0 mph 62% 0.00 in
11:26 63.0 °F 49.8 °F 30.27 in ESE 7.0 mph 13.0 mph 62% 0.00 in
11:31 63.5 °F 50.7 °F 30.27 in ESE 7.0 mph 10.0 mph 63% 0.00 in
11:36 63.8 °F 51.0 °F 30.26 in SSE 10.0 mph 11.0 mph 63% 0.00 in
11:41 64.1 °F 51.3 °F 30.26 in ESE 8.0 mph 13.0 mph 63% 0.00 in
11:47 64.7 °F 51.8 °F 30.26 in SSE 9.0 mph 14.0 mph 63% 0.00 in
11:52 64.8 °F 51.0 °F 30.26 in South 8.0 mph 12.0 mph 61% 0.00 in
11:57 65.2 °F 52.7 °F 30.25 in SE 7.0 mph 11.0 mph 64% 0.00 in
12:02 65.7 °F 51.9 °F 30.25 in SSE 10.0 mph 12.0 mph 61% 0.00 in
12:07 65.6 °F 51.4 °F 30.25 in SE 9.0 mph 12.0 mph 60% 0.00 in
12:12 65.5 °F 52.2 °F 30.24 in SE 8.0 mph 11.0 mph 62% 0.00 in
12:17 65.9 °F 52.5 °F 30.24 in ESE 11.0 mph 15.0 mph 62% 0.00 in
12:22 66.1 °F 52.3 °F 30.24 in ESE 7.0 mph 13.0 mph 61% 0.00 in
12:27 66.5 °F 51.8 °F 30.24 in ESE 9.0 mph 12.0 mph 59% 0.00 in
12:32 66.3 °F 51.6 °F 30.24 in SE 8.0 mph 12.0 mph 59% 0.00 in
12:37 66.4 °F 51.7 °F 30.23 in ESE 8.0 mph 10.0 mph 59% 0.00 in
12:42 66.2 °F 51.0 °F 30.23 in ESE 7.0 mph 14.0 mph 58% 0.00 in
12:47 66.0 °F 51.3 °F 30.23 in SE 7.0 mph 14.0 mph 59% 0.00 in
12:52 66.2 °F 51.9 °F 30.23 in SE 6.0 mph 13.0 mph 60% 0.00 in
12:57 66.9 °F 52.1 °F 30.23 in SSE 10.0 mph 14.0 mph 59% 0.00 in
13:02 67.2 °F 51.9 °F 30.22 in ESE 12.0 mph 13.0 mph 58% 0.00 in
13:07 67.3 °F 52.5 °F 30.22 in ESE 9.0 mph 13.0 mph 59% 0.00 in
13:12 67.9 °F 52.6 °F 30.21 in SE 9.0 mph 13.0 mph 58% 0.00 in
13:17 67.9 °F 52.1 °F 30.21 in SSE 12.0 mph 12.0 mph 57% 0.00 in
13:22 68.0 °F 52.2 °F 30.21 in SSE 15.0 mph 15.0 mph 57% 0.00 in
13:27 67.8 °F 52.5 °F 30.20 in SSE 7.0 mph 11.0 mph 58% 0.00 in
13:32 67.8 °F 52.0 °F 30.20 in SSE 7.0 mph 10.0 mph 57% 0.00 in
13:37 67.3 °F 51.6 °F 30.20 in SE 10.0 mph 13.0 mph 57% 0.00 in
13:43 67.1 °F 51.8 °F 30.20 in SE 8.0 mph 10.0 mph 58% 0.00 in
13:48 67.5 °F 52.7 °F 30.20 in SSE 10.0 mph 12.0 mph 59% 0.00 in
13:53 67.5 °F 52.7 °F 30.19 in ESE 14.0 mph 16.0 mph 59% 0.00 in
13:58 67.9 °F 52.6 °F 30.19 in SE 10.0 mph 11.0 mph 58% 0.00 in
14:03 68.3 °F 52.5 °F 30.19 in SE 11.0 mph 12.0 mph 57% 0.00 in
14:08 68.9 °F 54.0 °F 30.18 in South 10.0 mph 15.0 mph 59% 0.00 in
14:13 69.1 °F 52.8 °F 30.18 in South 8.0 mph 15.0 mph 56% 0.00 in
14:18 68.8 °F 52.0 °F 30.18 in SSE 5.0 mph 11.0 mph 55% 0.00 in
14:23 68.4 °F 52.6 °F 30.18 in SE 9.0 mph 12.0 mph 57% 0.00 in
14:28 68.1 °F 51.8 °F 30.18 in SSE 10.0 mph 13.0 mph 56% 0.00 in
14:33 68.3 °F 53.0 °F 30.18 in SE 6.0 mph 11.0 mph 58% 0.00 in
14:38 68.4 °F 53.1 °F 30.18 in SSE 11.0 mph 11.0 mph 58% 0.00 in
14:43 68.6 °F 52.3 °F 30.18 in SE 7.0 mph 13.0 mph 56% 0.00 in
14:48 68.9 °F 52.1 °F 30.18 in SE 4.0 mph 12.0 mph 55% 0.00 in
14:53 68.5 °F 52.7 °F 30.17 in SSW 7.0 mph 10.0 mph 57% 0.00 in
14:58 68.4 °F 52.6 °F 30.17 in SE 6.0 mph 11.0 mph 57% 0.00 in
15:03 68.3 °F 53.0 °F 30.17 in SE 8.0 mph 11.0 mph 58% 0.00 in
15:09 68.1 °F 52.3 °F 30.17 in SSE 8.0 mph 11.0 mph 57% 0.00 in
15:14 68.0 °F 52.2 °F 30.17 in SE 6.0 mph 10.0 mph 57% 0.00 in
15:19 67.9 °F 52.1 °F 30.17 in SE 10.0 mph 12.0 mph 57% 0.00 in
15:24 67.9 °F 52.1 °F 30.16 in ESE 7.0 mph 13.0 mph 57% 0.00 in
15:29 68.1 °F 52.8 °F 30.16 in ESE 13.0 mph 14.0 mph 58% 0.00 in
15:34 68.5 °F 53.6 °F 30.16 in SSE 7.0 mph 12.0 mph 59% 0.00 in
15:39 68.3 °F 52.5 °F 30.15 in SE 8.0 mph 13.0 mph 57% 0.00 in
15:44 68.1 °F 52.3 °F 30.15 in SE 8.0 mph 14.0 mph 57% 0.00 in
15:49 68.4 °F 53.1 °F 30.15 in SE 8.0 mph 16.0 mph 58% 0.00 in
15:54 67.9 °F 52.6 °F 30.14 in SE 8.0 mph 14.0 mph 58% 0.00 in
15:59 68.3 °F 53.0 °F 30.14 in SE 5.0 mph 13.0 mph 58% 0.00 in
16:04 68.0 °F 53.2 °F 30.14 in ESE 7.0 mph 11.0 mph 59% 0.00 in
16:09 67.8 °F 53.4 °F 30.14 in SE 11.0 mph 12.0 mph 60% 0.00 in
16:14 67.7 °F 53.3 °F 30.14 in SE 9.0 mph 13.0 mph 60% 0.00 in
16:19 67.7 °F 53.3 °F 30.14 in SE 4.0 mph 13.0 mph 60% 0.00 in
16:24 67.6 °F 52.8 °F 30.14 in SE 6.0 mph 13.0 mph 59% 0.00 in
16:29 67.6 °F 53.2 °F 30.14 in SE 9.0 mph 9.0 mph 60% 0.00 in
16:34 67.5 °F 53.1 °F 30.13 in ESE 8.0 mph 11.0 mph 60% 0.00 in
16:39 67.3 °F 53.4 °F 30.13 in SSE 4.0 mph 12.0 mph 61% 0.00 in
16:44 67.2 °F 53.3 °F 30.13 in SSE 9.0 mph 13.0 mph 61% 0.00 in
16:49 67.0 °F 53.1 °F 30.13 in SE 6.0 mph 14.0 mph 61% 0.00 in
16:54 66.8 °F 52.9 °F 30.13 in SE 14.0 mph 14.0 mph 61% 0.00 in
16:59 66.7 °F 53.3 °F 30.13 in SE 9.0 mph 13.0 mph 62% 0.00 in
17:04 66.6 °F 54.1 °F 30.13 in SE 6.0 mph 12.0 mph 64% 0.00 in
17:09 66.4 °F 53.4 °F 30.13 in SE 12.0 mph 12.0 mph 63% 0.00 in
17:14 66.4 °F 53.9 °F 30.13 in SE 7.0 mph 15.0 mph 64% 0.00 in
17:19 66.2 °F 54.5 °F 30.13 in SSE 9.0 mph 11.0 mph 66% 0.00 in
17:24 66.1 °F 54.4 °F 30.12 in SE 6.0 mph 10.0 mph 66% 0.00 in
17:29 65.9 °F 54.7 °F 30.12 in SE 9.0 mph 12.0 mph 67% 0.00 in
17:34 65.8 °F 55.4 °F 30.12 in SE 6.0 mph 12.0 mph 69% 0.00 in
17:39 65.6 °F 55.2 °F 30.12 in ESE 5.0 mph 13.0 mph 69% 0.00 in
17:44 65.4 °F 55.4 °F 30.12 in ESE 8.0 mph 14.0 mph 70% 0.00 in
17:49 65.2 °F 55.6 °F 30.12 in SE 7.0 mph 14.0 mph 71% 0.00 in
17:54 64.9 °F 55.7 °F 30.13 in SSE 7.0 mph 11.0 mph 72% 0.00 in
17:59 64.8 °F 56.0 °F 30.13 in SSE 11.0 mph 16.0 mph 73% 0.00 in
18:04 64.7 °F 55.9 °F 30.12 in SE 6.0 mph 13.0 mph 73% 0.00 in
18:09 64.6 °F 55.8 °F 30.12 in SSE 7.0 mph 14.0 mph 73% 0.00 in
18:15 64.4 °F 55.9 °F 30.11 in SSE 11.0 mph 14.0 mph 74% 0.00 in
18:20 64.2 °F 55.8 °F 30.11 in ESE 5.0 mph 10.0 mph 74% 0.00 in
18:25 64.0 °F 55.9 °F 30.11 in SSE 8.0 mph 13.0 mph 75% 0.00 in
18:30 63.8 °F 55.7 °F 30.10 in SE 10.0 mph 12.0 mph 75% 0.00 in
18:35 63.5 °F 55.8 °F 30.11 in SSE 4.0 mph 10.0 mph 76% 0.00 in
18:36 63.5 °F 55.8 °F 30.11 in SSE 6.0 mph 10.0 mph 76% 0.00 in
18:41 63.3 °F 56.3 °F 30.11 in ESE 8.0 mph 15.0 mph 78% 0.00 in
18:46 63.0 °F 56.7 °F 30.11 in ESE 12.0 mph 15.0 mph 80% 0.00 in
18:51 62.8 °F 57.2 °F 30.11 in SSE 16.0 mph 17.0 mph 82% 0.00 in
18:56 62.6 °F 57.0 °F 30.11 in SE 12.0 mph 15.0 mph 82% 0.00 in
19:01 62.5 °F 56.9 °F 30.12 in SSE 8.0 mph 10.0 mph 82% 0.00 in
19:06 62.4 °F 56.8 °F 30.12 in SSE 15.0 mph 15.0 mph 82% 0.00 in
19:11 62.3 °F 56.7 °F 30.12 in SSE 9.0 mph 15.0 mph 82% 0.00 in
19:16 62.1 °F 56.9 °F 30.12 in SSE 8.0 mph 10.0 mph 83% 0.00 in
19:21 61.9 °F 57.0 °F 30.13 in SSE 17.0 mph 19.0 mph 84% 0.00 in
19:26 61.8 °F 56.9 °F 30.13 in SSE 6.0 mph 12.0 mph 84% 0.00 in
19:31 61.3 °F 57.1 °F 30.13 in South 12.0 mph 14.0 mph 86% 0.00 in
19:36 60.8 °F 56.9 °F 30.13 in South 9.0 mph 14.0 mph 87% 0.00 in
19:41 60.3 °F 57.0 °F 30.13 in SE 9.0 mph 13.0 mph 89% 0.00 in
19:46 59.9 °F 57.0 °F 30.13 in SSE 7.0 mph 10.0 mph 90% 0.00 in
19:52 59.5 °F 56.9 °F 30.13 in SSE 7.0 mph 13.0 mph 91% 0.00 in
19:57 59.1 °F 56.8 °F 30.13 in SE 10.0 mph 10.0 mph 92% 0.00 in
20:02 58.9 °F 56.9 °F 30.12 in SE 4.0 mph 10.0 mph 93% 0.00 in
20:07 58.7 °F 56.7 °F 30.12 in SE 5.0 mph 9.0 mph 93% 0.00 in
20:12 58.6 °F 56.9 °F 30.12 in SE 5.0 mph 7.0 mph 94% 0.00 in
20:17 58.6 °F 56.9 °F 30.12 in SE 5.0 mph 9.0 mph 94% 0.00 in
20:22 58.5 °F 56.8 °F 30.12 in SE 4.0 mph 8.0 mph 94% 0.00 in
20:27 58.5 °F 56.8 °F 30.12 in SE 5.0 mph 8.0 mph 94% 0.00 in
20:32 58.5 °F 56.8 °F 30.11 in SSE 7.0 mph 8.0 mph 94% 0.00 in
20:37 58.5 °F 56.8 °F 30.11 in SSE 6.0 mph 9.0 mph 94% 0.00 in
20:42 58.5 °F 56.8 °F 30.11 in South 9.0 mph 10.0 mph 94% 0.00 in
20:48 58.6 °F 56.9 °F 30.11 in SE 7.0 mph 9.0 mph 94% 0.00 in
20:53 58.6 °F 56.9 °F 30.11 in ESE 7.0 mph 10.0 mph 94% 0.00 in
20:58 58.6 °F 56.9 °F 30.11 in SE 6.0 mph 9.0 mph 94% 0.00 in
21:03 58.6 °F 56.9 °F 30.11 in SSE 7.0 mph 10.0 mph 94% 0.00 in
21:08 58.6 °F 57.2 °F 30.10 in SSE 5.0 mph 10.0 mph 95% 0.00 in
21:13 58.7 °F 57.3 °F 30.10 in SSE 6.0 mph 10.0 mph 95% 0.00 in
21:18 58.7 °F 57.3 °F 30.10 in SE 6.0 mph 12.0 mph 95% 0.00 in
21:23 58.7 °F 57.3 °F 30.10 in SE 7.0 mph 9.0 mph 95% 0.00 in
21:28 58.7 °F 57.3 °F 30.11 in SSE 5.0 mph 9.0 mph 95% 0.00 in
21:33 58.8 °F 57.4 °F 30.11 in SSE 8.0 mph 11.0 mph 95% 0.00 in
21:38 58.8 °F 57.4 °F 30.10 in SE 6.0 mph 10.0 mph 95% 0.00 in
21:43 58.8 °F 57.4 °F 30.10 in SE 9.0 mph 14.0 mph 95% 0.00 in
21:48 58.8 °F 57.4 °F 30.10 in SE 6.0 mph 11.0 mph 95% 0.00 in
21:53 58.8 °F 57.4 °F 30.10 in SSE 8.0 mph 10.0 mph 95% 0.00 in
21:58 58.8 °F 57.4 °F 30.09 in ESE 7.0 mph 15.0 mph 95% 0.00 in
22:03 58.8 °F 57.4 °F 30.10 in SE 6.0 mph 10.0 mph 95% 0.00 in
22:08 58.9 °F 57.5 °F 30.09 in SE 6.0 mph 15.0 mph 95% 0.00 in
22:13 58.9 °F 57.5 °F 30.10 in SE 7.0 mph 11.0 mph 95% 0.00 in
22:18 58.9 °F 57.5 °F 30.09 in SSE 6.0 mph 11.0 mph 95% 0.00 in
22:24 59.0 °F 57.6 °F 30.09 in SE 5.0 mph 12.0 mph 95% 0.00 in
22:29 59.0 °F 57.6 °F 30.09 in SSE 8.0 mph 12.0 mph 95% 0.00 in
22:34 59.0 °F 57.6 °F 30.08 in SSE 7.0 mph 13.0 mph 95% 0.00 in
22:39 59.1 °F 57.7 °F 30.08 in SE 7.0 mph 11.0 mph 95% 0.00 in
22:44 59.1 °F 57.7 °F 30.08 in SE 8.0 mph 10.0 mph 95% 0.00 in
22:49 59.1 °F 57.7 °F 30.08 in ESE 9.0 mph 11.0 mph 95% 0.00 in
22:54 59.2 °F 57.8 °F 30.08 in SE 9.0 mph 12.0 mph 95% 0.00 in
22:59 59.3 °F 57.9 °F 30.08 in SSE 9.0 mph 9.0 mph 95% 0.00 in
23:04 59.4 °F 58.0 °F 30.08 in SSE 12.0 mph 14.0 mph 95% 0.00 in
23:09 59.5 °F 58.1 °F 30.08 in SSE 7.0 mph 13.0 mph 95% 0.00 in
23:15 59.6 °F 58.2 °F 30.08 in SSE 4.0 mph 13.0 mph 95% 0.00 in
23:20 59.6 °F 58.2 °F 30.08 in SSE 7.0 mph 14.0 mph 95% 0.00 in
23:25 59.7 °F 58.3 °F 30.07 in SSE 13.0 mph 13.0 mph 95% 0.00 in
23:30 59.8 °F 58.4 °F 30.07 in SSE 14.0 mph 17.0 mph 95% 0.00 in
23:35 59.9 °F 58.5 °F 30.06 in SSE 9.0 mph 14.0 mph 95% 0.00 in
23:40 59.9 °F 58.5 °F 30.06 in SE 11.0 mph 16.0 mph 95% 0.00 in
23:45 60.0 °F 58.6 °F 30.05 in SE 11.0 mph 17.0 mph 95% 0.00 in
23:50 60.1 °F 58.7 °F 30.06 in SE 10.0 mph 15.0 mph 95% 0.00 in
23:55 60.1 °F 58.7 °F 30.05 in SSE 7.0 mph 12.0 mph 95% 0.00 in
Compliments of Weather Underground